Theta_e
347 353 359 361 361 360 360 360 361 361 360 360 359 360 360 360 360 360 360 360 359 358 358 356 355 354 353 352 352 354 354 355 357 354 355 356 356 355 357 356 357 354 358
351 355 361 362 361 361 361 361 360 361 360 361 360 360 360 361 361 361 360 359 358 358 357 356 355 354 353 352 354 352 352 354 357 356 357 357 356 354 357 356 355 356 360
352 354 358 362 361 361 361 361 361 360 360 360 361 359 360 360 359 359 358 357 358 358 357 356 354 353 353 354 351 354 355 355 354 353 355 359 354 355 357 357 357 360 361
352 354 356 363 362 358 360 360 360 361 361 361 361 360 359 358 357 356 357 356 354 355 355 355 356 356 355 355 355 354 352 356 357 356 356 355 354 354 357 356 359 359 361
351 353 354 362 361 359 360 359 359 358 357 357 355 355 356 356 355 355 355 354 354 354 354 354 355 356 358 358 358 357 356 354 353 355 355 354 354 353 357 358 359 357 360
350 352 358 361 357 361 360 361 359 360 360 360 360 358 357 355 354 354 354 353 353 353 355 357 357 358 359 357 357 358 358 359 359 354 354 353 355 354 356 357 358 360 359
348 350 355 361 359 360 361 360 359 359 358 357 355 353 353 352 352 353 355 357 359 359 358 358 356 356 357 359 359 359 359 359 358 357 354 354 354 356 358 360 359 359 359
349 351 354 360 361 361 360 359 360 357 355 354 353 353 353 355 358 358 358 359 359 358 357 356 356 355 356 357 359 360 360 360 358 357 355 353 354 357 359 360 361 361 360
353 351 350 354 356 358 358 358 358 356 354 354 355 356 357 358 357 357 357 357 359 358 358 356 356 356 357 359 361 360 361 361 361 356 355 355 355 358 361 360 363 363 361
351 349 348 351 350 348 350 355 355 354 355 356 358 359 361 360 361 361 363 359 359 360 360 360 360 361 364 363 363 363 361 361 359 357 355 354 356 358 360 363 362 360 360
348 346 348 349 347 345 347 350 355 356 357 359 359 361 351 354 349 350 359 362 364 363 364 363 364 365 366 366 365 365 365 361 357 355 356 356 359 360 362 364 362 363 362
343 345 346 347 347 346 349 351 353 354 353 352 352 352 350 351 347 354 356 359 361 363 365 364 364 365 364 362 359 357 360 357 355 356 354 359 360 358 357 357 358 357 357
340 343 344 346 348 345 344 346 350 349 348 350 351 352 347 350 348 350 351 351 353 357 355 353 353 354 357 358 357 355 357 352 355 353 356 358 359 357 355 356 355 354 353
338 340 342 345 347 346 344 345 346 346 347 348 352 354 347 348 350 350 352 354 352 353 355 354 352 353 357 355 353 353 351 351 353 352 358 359 360 357 356 354 353 354 352
336 339 341 344 347 347 344 343 343 344 348 350 352 355 351 349 350 354 354 353 353 354 354 355 352 352 355 352 352 352 351 352 350 351 354 358 356 355 352 351 352 353 354
337 338 340 343 346 345 343 342 344 346 348 349 349 352 354 353 352 353 351 352 354 354 355 355 354 354 355 352 352 354 353 351 351 351 354 354 355 354 350 348 347 346 345
336 338 338 341 344 344 344 348 348 349 352 350 352 352 356 355 354 347 348 352 355 357 357 356 355 354 353 351 350 353 352 351 351 350 352 351 352 350 349 348 347 345 343
336 337 339 345 344 344 346 350 349 352 352 351 351 354 357 356 355 346 351 356 358 357 356 354 353 353 354 350 348 350 351 350 352 351 351 351 349 346 349 348 346 343 341
337 337 339 343 342 344 347 349 349 352 352 350 353 352 356 356 353 356 355 359 358 355 355 353 352 351 350 349 347 348 350 349 350 349 349 348 346 347 345 347 346 343 341
337 338 339 341 341 342 348 349 349 349 348 348 351 354 355 352 356 354 358 359 357 356 355 355 351 348 346 344 347 346 347 349 349 348 345 346 344 345 343 343 345 342 342
338 338 338 339 340 341 344 344 344 345 347 348 350 353 355 355 357 358 358 358 357 356 355 355 353 345 338 335 336 343 344 345 347 346 344 343 342 342 341 339 338 339 340
337 338 338 338 338 340 344 343 345 349 350 349 352 353 357 353 354 358 359 358 358 357 355 354 349 346 338 332 332 329 333 336 332 341 341 340 340 341 340 338 336 333 334
336 336 337 337 337 338 344 345 346 347 344 346 349 350 351 354 352 358 360 359 359 358 354 354 352 345 335 334 329 329 323 326 323 329 333 338 339 338 340 338 333 332 331
336 338 338 336 335 338 344 344 343 341 340 340 342 345 347 351 355 358 360 359 359 358 357 355 347 343 336 329 330 320 322 326 325 321 322 322 326 328 331 337 333 330 330
337 336 337 336 336 339 343 345 344 342 341 342 345 346 348 351 355 353 359 359 359 358 357 355 348 336 336 328 325 323 320 316 316 315 311 314 318 326 328 334 329 328 328
335 336 337 336 336 339 342 345 344 343 343 343 343 342 346 348 351 354 358 358 358 360 357 355 347 337 331 329 326 323 318 317 317 316 314 313 314 323 327 328 326 327 328
Wind_Speed
2 4 8 11 11 12 11 11 10 12 12 11 11 9 9 10 11 10 10 10 9 7 6 4 3 2 1 2 2 2 3 4 3 4 5 3 2 2 1 0 3 2 6
6 5 8 10 10 10 10 10 10 10 11 12 10 9 9 9 9 9 9 10 8 7 7 4 3 2 1 1 2 2 3 3 0 1 2 2 2 1 1 2 1 3 7
5 5 4 8 9 11 9 9 10 10 9 8 10 9 8 8 6 8 7 6 6 5 4 3 2 1 1 2 1 2 3 2 1 1 1 2 1 2 1 0 4 5 6
6 5 4 8 9 9 8 8 9 9 9 8 7 8 8 8 8 7 6 5 4 3 2 2 1 2 2 3 3 2 3 4 4 4 2 2 2 3 3 2 6 7 7
5 5 5 9 9 8 9 8 9 8 8 8 7 7 6 5 5 5 5 4 4 3 3 3 4 4 5 6 5 4 5 5 5 4 1 1 1 4 5 5 4 6 7
5 4 6 9 8 7 7 8 8 8 8 6 6 5 4 3 2 2 3 4 4 5 6 5 5 5 5 4 4 6 6 8 8 4 4 4 4 6 7 6 6 7 8
5 3 4 9 8 7 8 8 7 6 5 4 3 2 1 1 2 3 4 5 6 7 6 6 7 8 8 6 5 7 8 8 5 4 5 5 5 8 9 11 9 9 9
6 4 3 8 7 7 7 6 5 4 3 2 2 2 2 3 5 4 3 4 5 6 6 6 6 5 5 6 7 9 9 8 6 5 6 5 8 9 10 11 11 12 12
5 5 3 2 5 7 6 5 4 3 2 2 3 3 4 4 2 1 3 4 4 4 5 6 5 5 6 8 9 9 9 8 4 3 5 4 7 10 14 11 14 13 13
4 4 4 3 2 2 2 4 3 2 3 4 5 6 7 5 7 6 1 4 6 6 6 6 6 8 9 11 10 10 10 9 3 4 3 3 7 10 11 10 11 10 10
3 3 3 4 3 2 1 2 2 3 3 5 6 8 7 4 4 6 5 7 9 6 7 9 6 8 10 11 9 8 10 2 3 3 3 7 8 7 3 8 9 9 11
4 4 4 4 3 1 2 1 2 2 2 3 3 4 3 3 4 5 6 7 7 9 9 9 9 8 6 3 2 2 1 3 1 1 2 5 3 4 4 5 2 3 5
4 3 5 5 3 3 2 1 1 1 2 2 4 3 3 3 3 3 2 2 2 5 3 4 4 2 3 2 1 1 4 3 1 1 3 4 4 7 9 8 6 4 4
6 5 5 5 4 4 2 1 2 2 1 3 3 3 2 2 3 2 3 3 2 2 3 2 3 3 2 2 1 4 5 3 2 1 2 6 8 9 8 8 7 6 5
6 6 6 6 5 4 3 2 2 3 2 3 3 3 2 3 3 3 3 3 2 1 1 2 2 3 2 1 4 5 5 5 4 2 1 8 9 9 9 10 10 11 11
5 6 6 6 5 4 4 3 4 2 4 3 2 4 4 2 3 3 4 3 2 2 2 2 2 3 2 2 3 4 6 5 4 3 3 4 10 11 11 11 10 10 11
5 6 7 6 5 5 4 4 2 2 1 3 2 5 4 1 3 3 4 3 2 2 3 3 2 2 1 2 3 4 4 6 5 5 4 4 7 11 11 11 9 10 10
6 8 7 5 5 5 4 2 1 1 3 2 3 3 3 2 1 2 3 2 2 2 2 2 2 2 1 2 1 3 4 5 6 6 4 4 4 4 7 11 9 9 9
8 6 7 6 6 5 4 1 2 3 3 3 1 1 2 1 1 2 3 2 2 2 3 2 2 2 2 1 3 3 4 4 4 5 6 6 5 4 2 6 10 7 7
7 6 5 5 7 4 1 1 1 3 3 2 1 1 1 1 1 1 3 3 3 3 3 3 3 3 2 2 1 2 3 3 4 4 4 5 4 4 3 3 4 4 7
6 7 7 7 7 4 2 1 1 2 2 2 2 3 2 1 1 1 1 3 3 3 3 3 1 3 4 4 2 2 1 3 5 3 3 5 5 5 5 3 2 3 4
11 9 7 8 7 5 3 3 2 1 2 2 3 2 1 1 2 1 1 2 3 2 4 4 4 2 2 4 2 1 2 2 1 3 4 5 6 4 4 2 3 4 4
10 11 11 9 8 6 6 3 1 1 1 3 2 2 2 3 1 3 1 1 1 2 2 2 3 4 2 2 5 2 1 2 2 1 2 3 3 4 4 4 4 6 5
14 9 6 7 8 6 7 5 4 3 1 1 1 2 4 3 3 3 3 2 1 1 2 2 2 2 1 2 1 3 3 1 2 3 2 3 4 5 6 6 6 7 4
10 11 9 7 7 6 6 6 5 4 3 1 1 3 4 3 2 2 3 3 2 2 1 2 3 4 2 1 2 2 2 2 2 1 3 2 2 6 6 2 5 5 5
7 7 8 9 8 6 6 6 7 7 5 2 2 1 2 3 3 2 3 4 3 3 2 0 1 2 3 2 1 1 1 1 2 1 1 1 1 3 5 5 5 4 2
Wind_Direction
231 151 142 139 143 144 143 135 134 123 131 135 133 131 123 112 120 121 121 134 120 129 133 130 113 142 352 18 4 262 301 7 17 22 358 14 23 327 347 134 36 82 108
138 158 145 136 134 129 121 126 115 120 126 136 140 132 123 125 123 123 125 114 120 124 114 110 118 143 129 53 38 3 334 347 300 233 243 309 332 306 189 134 222 112 109
130 125 142 133 127 126 121 120 123 116 121 130 122 128 126 121 118 123 126 113 102 99 108 119 119 121 351 3 26 313 290 279 301 260 278 125 200 236 222 156 152 130 134
131 126 117 123 119 115 109 117 124 121 130 116 117 117 118 124 135 134 127 129 145 162 170 178 254 276 268 275 274 234 271 291 301 304 11 79 240 250 228 259 159 152 151
114 126 150 130 119 133 141 140 135 129 122 133 133 125 125 126 124 131 140 164 193 226 251 268 275 281 269 265 258 257 243 248 261 268 282 272 290 276 255 230 188 175 169
112 121 149 132 138 137 135 127 127 135 138 130 118 123 123 120 156 188 201 215 233 242 251 256 259 263 272 249 255 263 256 235 230 230 227 225 222 243 258 244 221 207 197
130 147 135 141 151 133 132 131 141 142 133 137 132 122 141 199 242 252 255 257 257 257 254 249 253 258 258 263 258 258 257 257 242 225 233 235 236 243 252 238 225 218 213
135 143 156 150 148 146 149 151 153 148 159 164 191 219 221 248 254 258 231 246 259 253 248 245 254 259 250 249 252 254 259 251 252 225 224 224 231 242 250 237 224 220 217
121 133 135 126 156 175 174 178 174 187 207 241 254 263 254 249 202 227 253 264 264 266 268 255 262 267 265 256 253 253 254 268 236 238 241 218 219 236 246 243 218 211 214
123 145 150 161 161 198 222 195 213 247 264 279 293 304 302 298 338 343 273 293 285 279 271 273 260 255 246 252 249 246 249 251 255 248 251 248 243 258 255 257 231 225 219
155 173 177 185 198 209 285 281 255 276 283 324 346 339 356 344 356 354 325 306 279 266 274 273 275 244 240 238 242 243 239 194 252 267 229 251 253 256 272 240 213 216 221
196 203 205 208 204 185 262 275 302 310 337 326 324 333 340 0 340 345 341 330 333 332 315 326 316 299 286 248 272 303 167 160 65 296 185 222 128 102 64 50 10 293 260
190 201 202 213 193 202 240 288 295 323 319 316 323 325 340 1 331 346 310 323 334 335 326 319 307 305 305 285 282 113 122 132 90 124 172 167 97 62 45 34 29 2 307
176 196 207 205 195 212 215 246 266 267 316 319 319 323 346 336 337 336 296 306 350 293 306 327 318 311 301 264 138 139 140 156 171 178 179 102 82 80 68 60 56 52 54
184 190 208 195 206 210 227 257 257 285 288 280 305 309 302 328 321 315 306 319 321 287 111 317 327 319 296 84 132 161 151 174 166 174 134 121 113 113 115 101 89 85 87
190 192 196 204 204 201 228 260 268 243 276 302 318 288 294 275 324 344 318 325 343 326 321 349 355 334 298 187 146 157 173 160 159 131 143 143 143 148 139 118 105 96 89
202 187 189 199 212 213 233 256 257 238 269 298 252 281 260 262 292 324 312 324 312 331 13 14 12 286 314 261 206 173 159 169 168 163 168 164 163 165 150 130 126 114 109
185 188 177 191 193 214 211 235 274 350 323 303 231 234 302 357 277 324 276 332 356 33 31 360 340 21 287 231 259 208 181 182 175 169 173 192 173 186 163 150 150 135 116
192 180 174 180 188 194 208 210 347 330 324 287 204 214 293 259 157 296 308 357 31 11 33 12 16 11 18 6 231 206 207 197 190 192 189 194 192 182 195 180 156 157 134
182 179 185 178 180 183 192 59 303 321 296 300 17 213 175 177 253 286 332 15 18 18 14 27 45 24 6 4 296 219 237 217 212 213 185 204 199 202 194 203 207 189 129
169 172 192 182 191 155 145 172 12 289 302 324 353 279 348 15 301 301 347 27 26 29 15 12 20 17 15 7 55 354 333 281 242 226 195 206 208 219 210 217 49 13 109
185 192 185 205 187 186 157 159 176 206 285 273 307 297 294 8 360 264 38 5 340 7 19 30 35 352 8 13 79 34 346 301 305 248 218 209 209 229 232 166 109 83 80
183 190 192 203 200 195 169 135 128 3 357 358 5 349 10 353 298 259 199 179 50 47 27 7 7 28 356 2 54 115 6 272 330 348 245 222 214 251 259 203 132 113 99
202 185 191 192 199 210 171 147 149 162 172 245 295 310 328 302 256 208 193 154 102 76 19 26 33 46 68 357 25 64 50 273 312 329 356 46 68 5 303 241 141 123 125
185 183 183 189 199 192 188 173 163 174 189 223 276 331 339 313 238 216 196 181 196 121 31 36 10 36 57 45 18 4 3 41 50 135 293 343 19 15 357 253 117 117 103
176 173 166 181 215 200 189 184 182 191 195 210 256 317 333 294 285 215 219 206 205 162 155 158 84 60 83 92 66 73 44 22 320 316 323 326 311 18 31 73 103 104 90